Location: Siloam Springs
(36.1881°N, 94.5403°W)
Time: 09:56:30
(UTC-05:00)

RS-15 - Pass Details

Date: 27 May 2024
Orbit: 1896 x 2148 km, 64.8° (Epoch: 19 June)

Event Time Altitude Azimuth Distance (km) Brightness Sun altitude
Rises 23:57:06 0° 330° (NNW) 5,364 11.5 -29.5°
Reaches altitude 10° 00:00:30 10° 334° (NNW) 4,340 10.8 -29.8°
Maximum altitude 00:11:28 65° 56° (NE) 2,052 8.0 -30.5°
Enters shadow 00:15:34 42° 119° (ESE) 2,506 8.2 -30.7°
